Tracking 34223 objects as of 31-May-2026
HD Live streaming from Space Station
objects crossing your sky now

RCM-1

Track RCM-1 now!
10-day predictions


NORAD ID: 44322
Int'l Code: 2019-033A
Perigee: 596.0 km
Apogee: 598.0 km
Inclination: 97.8 °
Period: 96.5 minutes
Semi major axis: 6968 km
RCS: Unknown
Launch date: June 12, 2019
Source: Canada (CA)
Launch site: AIR FORCE WESTERN TEST RANGE (AFWTR)
Your satellite tracking list
Your tracking list is empty




NASA's NSSDC Master Catalog

Two Line Element Set (TLE):
1 44322U 19033A   26151.03960894 -.00000074  00000-0 -17856-5 0  9990
2 44322  97.7599 158.7261 0001407  89.8844 270.2536 14.92587212379528
Source of the keplerian elements: AFSPC